Weather History for Piney Island, NC

Change the Weather History Date:

Thursday, February 7, 2013

  Actual Average (KMRH) Record (KMRH)
Temperature  
Mean Temperature 51 °F -  
Max Temperature 54 °F 55 °F 70 °F (1990)
Min Temperature 48 °F 36 °F 15 °F (1978)
Degree Days  
Heating Degree Days 14    
Growing Degree Days 1 (Base 50)    
Moisture  
Dew Point 48 °F    
Average Humidity 86    
Maximum Humidity 100    
Minimum Humidity 75    
Precipitation  
Precipitation 1.05 in - - ()
Sea Level Pressure  
Sea Level Pressure 30.14 in    
Wind  
Wind Speed 14 mph (NE)    
Max Wind Speed 25 mph    
Max Gust Speed 34 mph    
Visibility 6 miles    
Events Rain    
Averages and records for this station are not official NWS values.
T = Trace of Precipitation, MM = Missing Value Source: NWS Daily Summary

Daily Weather History Graph

Daily Weather History Graph

Search for Another Location

Airport:

Trip Planner

Search our weather history database for the weather conditions in past years. The results will help you decide how hot, cold, wet, or windy it might be!

Date:

Astronomy

Feb. 07, 2013 Rise Set
Actual Time 6:59 AM EST 5:40 PM EST
Civil Twilight 6:33 AM EST 6:07 PM EST
Nautical Twilight 6:03 AM EST 6:37 PM EST
Astronomical Twilight 5:33 AM EST 7:06 PM EST
Moon 4:33 AM EST (2/7) 3:06 PM EST (2/7)
Length of Visible Light 11h 33m
Length of Day
10h 41m
Waning Crescent, 9% of the Moon is Illuminated
Feb 7
Waning Crescent
Feb 10
New
Feb 17
First Quarter
Feb 25
Full
Mar 4
Last Quarter

Hourly Weather History & Observations

Time (EST) Temp. Dew Point Humidity Pressure Visibility Wind Dir Wind Speed Gust Speed Precip Events Conditions
12:56 AM 50.0 °F 45.0 °F 83% 30.28 in 10.0 mi NE 9.2 mph - N/A   Clear
1:56 AM 50.0 °F 45.0 °F 83% 30.28 in 10.0 mi NE 12.7 mph - N/A   Clear
2:56 AM 50.0 °F 44.1 °F 80% 30.26 in 10.0 mi NE 11.5 mph - N/A   Clear
3:56 AM 48.9 °F 44.1 °F 83% 30.27 in 10.0 mi NE 11.5 mph - N/A   Clear
4:56 AM 50.0 °F 44.1 °F 80% 30.28 in 10.0 mi NE 12.7 mph - N/A   Clear
5:56 AM 50.0 °F 45.0 °F 83% 30.27 in 10.0 mi NE 12.7 mph - N/A   Clear
6:56 AM 50.0 °F 44.1 °F 80% 30.28 in 9.0 mi NE 12.7 mph - N/A   Clear
7:56 AM 51.1 °F 45.0 °F 80% 30.29 in 9.0 mi NE 13.8 mph - N/A   Clear
8:56 AM 52.0 °F 45.0 °F 77% 30.29 in 10.0 mi NE 15.0 mph 24.2 mph N/A   Clear
9:56 AM 54.0 °F 46.0 °F 75% 30.30 in 10.0 mi NE 16.1 mph 24.2 mph N/A   Scattered Clouds
10:56 AM 53.1 °F 46.0 °F 77% 30.30 in 10.0 mi NE 18.4 mph 25.3 mph N/A   Partly Cloudy
11:56 AM 54.0 °F 46.9 °F 77% 30.26 in 10.0 mi NE 17.3 mph 26.5 mph N/A   Partly Cloudy
12:56 PM 54.0 °F 46.9 °F 77% 30.22 in 10.0 mi NE 18.4 mph 27.6 mph N/A   Mostly Cloudy
1:56 PM 53.1 °F 46.9 °F 80% 30.20 in 10.0 mi NE 18.4 mph 25.3 mph N/A   Overcast
2:56 PM 53.1 °F 46.9 °F 80% 30.19 in 10.0 mi NE 17.3 mph 23.0 mph N/A   Overcast
3:56 PM 52.0 °F 50.0 °F 93% 30.17 in 6.0 mi ENE 13.8 mph 21.9 mph 0.01 in Rain Light Rain
4:45 PM 51.8 °F 50.0 °F 94% 30.15 in 5.0 mi NE 13.8 mph - 0.01 in Rain Light Rain
4:56 PM 52.0 °F 50.0 °F 93% 30.16 in 6.0 mi NE 13.8 mph - 0.02 in Rain Light Rain
5:48 PM 51.8 °F 50.0 °F 94% 30.13 in 5.0 mi NE 13.8 mph - 0.05 in Rain Rain
5:56 PM 52.0 °F 50.0 °F 93% 30.14 in 4.0 mi ENE 15.0 mph - 0.06 in Rain Rain
6:23 PM 51.8 °F 51.8 °F 100% 30.12 in 5.0 mi NE 16.1 mph 23.0 mph 0.03 in Rain Light Rain
6:37 PM 51.8 °F 51.8 °F 100% 30.13 in 4.0 mi ENE 11.5 mph 20.7 mph 0.04 in Rain Light Rain
6:56 PM 51.1 °F 51.1 °F 100% 30.13 in 4.0 mi NE 12.7 mph - 0.07 in Rain Rain
7:03 PM 51.8 °F 51.8 °F 100% 30.11 in 5.0 mi NE 15.0 mph - 0.00 in Rain Light Rain
7:56 PM 52.0 °F 52.0 °F 100% 30.09 in 6.0 mi NE 12.7 mph - 0.06 in Rain Rain
8:56 PM 52.0 °F - N/A% 30.07 in 5.0 mi ENE 13.8 mph - 0.10 in Rain Rain
9:25 PM 53.6 °F - N/A% 30.04 in 4.0 mi NE 11.5 mph - 0.07 in Rain Rain
9:44 PM 53.6 °F - N/A% 30.03 in 4.0 mi ENE 15.0 mph - 0.11 in Rain Rain
9:56 PM 54.0 °F - N/A% 30.03 in 4.0 mi ENE 17.3 mph 24.2 mph 0.15 in Rain Rain
10:23 PM 53.6 °F - N/A% 30.01 in 3.0 mi ENE 19.6 mph 25.3 mph 0.09 in Rain Heavy Rain
10:56 PM 53.1 °F - N/A% 29.99 in 2.5 mi NE 18.4 mph - 0.29 in Rain Heavy Rain
11:09 PM 53.6 °F - N/A% 29.95 in 3.0 mi ENE 23.0 mph 28.8 mph 0.06 in Rain Heavy Rain
11:31 PM 53.6 °F - N/A% 29.92 in 3.0 mi ENE 25.3 mph 33.4 mph 0.17 in Rain Heavy Rain
11:37 PM 53.6 °F - N/A% 29.91 in 2.5 mi ENE 23.0 mph 34.5 mph 0.21 in Rain Heavy Rain
11:51 PM 53.6 °F - N/A% 29.89 in 3.0 mi NE 21.9 mph 31.1 mph 0.27 in Rain Heavy Rain
11:56 PM 53.1 °F - N/A% 29.90 in 3.0 mi ENE 24.2 mph 33.4 mph 0.29 in Rain Heavy Rain